Location: Peebles
(55.6412°N, 3.1714°W)
Time: 12:13:56
(UTC+00:00)

CUTE-I - Pass Details

Date: 11 December 2023
Orbit: 807 x 823 km, 98.7° (Epoch: 24 February)

Event Time Altitude Azimuth Distance (km) Brightness Sun altitude
Rises 17:48:40 0° 177° (S) 3,322 ? -16.5°
Reaches altitude 10° 17:51:03 10° 182° (S) 2,397 ? -16.8°
Maximum altitude 17:56:14 54° 259° (W) 993 ? -17.5°
Drops below altitude 10° 18:01:30 10° 337° (NNW) 2,425 ? -18.2°
Sets 18:03:55 0° 342° (NNW) 3,364 ? -18.6°
